Content
SEND FEEDBACK

Daily
Averages
Monthly
Summary
Canada

MONTREAL, QUEBEC


Home > North America > Canada > Quebec
Elevation: 118 feet     Latitude: 45 28N     Longitude: 073 45W

WEATHER
 
SELECT A DAY
Number of Records: 201,385;   Date Range: 1/1/95 - 10/19/14
 
SHARE

PRINT THIS DATA

[ ← Previous Day ]
WEATHER ALMANAC - SEPTEMBER 25, 2013
[ Next Day → ]
[ °C ]   °F
Weather ElementAverageHighLow
Temperature53.6 °F63 °F (2:00 pm)44.6 °F (5:00 am)
Dewpoint45.2 °F48.2 °F (2:00 pm)42.8 °F (1:00 am)
Humidity73.6 %93 % (4:00 am)46 % (2:00 pm)
Barometer29.98 in30.04 in (10:00 pm)29.95 in (3:00 am)
Wind Speed4.2 mph11.5 mph (5:00 pm)
Weather ElementAverage
Visibility19.4 mi
Wind DirectionESE (100 °)

Weather ElementTotal
Precipitation---
Heating Degree Days11.2 (Base 65)
Growing Degree Days3.8 (Base 50)
Averaged from 27 records on September 25, 2013
WEATHER CONDITIONS BREAKOUT
WIND DIRECTION BREAKOUT
WEATHER BY HOUR - SEPTEMBER 25, 2013
[ °C ]   °F
Local TimeTemperatureDewpointHumidityBarometerVisibilityWind DirectionWind SpeedGust SpeedPrecipitationEventsConditions
1:00 AM46.4 °F42.8 °F87 %29.96 in15.0 miNW (320°)3.5 mphPartly Cloudy
2:00 AM47.0 °F44.0 °F87 %29.96 in15.0 miNW (310°)1.2 mphClear
2:00 AM48.2 °F44.6 °F87 %29.96 in15.0 miCalmPartly Cloudy
3:00 AM46.4 °F42.8 °F87 %29.95 in15.0 miCalmPartly Cloudy
4:00 AM46.4 °F44.6 °F93 %29.96 in15.0 miNNW (330°)2.3 mphPartly Cloudy
5:00 AM44.6 °F42.8 °F93 %29.96 in15.0 miCalmPartly Cloudy
6:00 AM44.6 °F42.8 °F93 %29.96 in15.0 miCalmPartly Cloudy
7:00 AM44.6 °F42.8 °F93 %29.97 in15.0 miCalmPartly Cloudy
8:00 AM49.0 °F45.0 °F79 %29.97 in15.0 miNorth2.3 mphScattered Clouds
8:00 AM48.2 °F44.6 °F87 %29.97 in15.0 miNorth (350°)2.3 mphPartly Cloudy
9:00 AM53.6 °F44.6 °F72 %29.98 in15.0 miWNW (290°)4.6 mphPartly Cloudy
10:00 AM55.4 °F44.6 °F67 %29.99 in15.0 miNNW (340°)3.5 mphPartly Cloudy
11:00 AM59.0 °F46.4 °F63 %29.99 in15.0 miNNE (20°)4.6 mphPartly Cloudy
12:00 PM60.8 °F46.4 °F59 %29.98 in30.0 miESE (120°)3.5 mphScattered Clouds
1:00 PM62.6 °F46.4 °F55 %29.97 in30.0 miVariable2.3 mphMostly Cloudy
2:00 PM63.0 °F47.0 °F46 %29.97 in28.0 miNE (40°)4.6 mphMostly Cloudy
2:00 PM62.6 °F48.2 °F59 %29.97 in30.0 miNNE (30°)2.3 mphMostly Cloudy
3:00 PM62.6 °F48.2 °F59 %29.97 in30.0 miEast (80°)3.5 mphScattered Clouds
4:00 PM62.6 °F48.2 °F59 %29.97 in30.0 miNorth (10°)9.2 mphScattered Clouds
5:00 PM60.8 °F48.2 °F63 %29.97 in30.0 miENE (60°)11.5 mphPartly Cloudy
6:00 PM59.0 °F46.4 °F63 %29.98 in30.0 miENE (60°)10.4 mphPartly Cloudy
7:00 PM57.2 °F46.4 °F67 %30.00 in15.0 miENE (70°)10.4 mphPartly Cloudy
8:00 PM53.0 °F45.0 °F67 %30.01 in15.0 miENE (60°)5.8 mph
8:00 PM53.6 °F44.6 °F72 %30.01 in15.0 miENE (60°)5.8 mphClear
9:00 PM53.6 °F44.6 °F72 %30.02 in15.0 miENE (60°)8.1 mphClear
10:00 PM51.8 °F44.6 °F76 %30.04 in15.0 miNE (40°)5.8 mphClear
11:00 PM50.0 °F44.6 °F82 %30.04 in15.0 miNE (50°)6.9 mphPartly Cloudy
Hourly data recorded from CYUL, located miles away from Montreal, Quebec







STORIES FROM OUR PARTNERS